[[{"header":{"parameterUnit":"m.s-1","parameterCategory":1,"la1":30.2991,"la2":30.254,"lo1":-89.0895,"lo2":-89.0444,"dy":0.0017,"dx":0.0017,"nx":28,"ny":28,"refTime":"2025-03-21T03:00:00:Z","depth":0,"parameterNumber":2,"parameterNumberName":"U-component_of_WINDS"},"data":[0,0,0,0,0,0,0,0,0,0,0,0,0,0,0,0,0,0,0,0,0,0,0,0,0,0,0,0,0,0,0,0,0,0,0,0,0,0,0,0,0,0,0,0,0,0,0,0,0,0,0,0,0,0,0,0,0,0,3.217,3.2169,0,3.2153,3.2153,3.2152,3.2064,3.2062,3.206,3.2058,3.2042,3.2043,3.2045,0,0,0,0,0,0,0,0,0,0,0,0,0,3.2128,3.2129,3.217,3.2169,3.2169,3.2153,3.2153,3.2152,3.2065,3.2062,3.206,3.2057,3.2041,3.2043,3.2045,0,0,0,0,0,0,0,0,0,0,0,0,0,3.2132,3.2129,3.217,3.2123,3.2119,3.2153,3.2153,3.2152,3.2065,3.2062,3.2059,3.2056,3.2041,3.2043,3.2045,3.2122,0,0,3.2052,3.2053,0,0,0,0,0,0,0,0,3.2132,3.2134,3.213,3.2127,3.2122,3.2107,3.2132,3.2142,3.2066,3.2086,3.2058,3.2055,3.2066,3.2066,3.207,3.2121,3.2121,3.2052,3.2054,3.2055,3.2055,0,0,0,0,0,0,0,3.2132,3.2134,3.2163,3.2131,3.2125,3.2104,3.2101,3.2133,3.2094,3.2084,3.2077,3.2077,3.2063,3.2068,3.2069,3.212,3.2052,3.2054,3.2056,3.2056,3.2236,3.2239,0,0,0,0,0,0,3.2138,3.2134,3.2163,3.2162,3.2119,3.2108,3.2104,3.2115,3.2093,3.2087,3.2079,3.2073,3.2066,3.2066,3.2068,3.2157,3.2055,3.2057,3.2058,3.2233,3.2237,3.224,0,0,0,0,0,0,3.2137,3.2141,3.2164,3.2147,3.2148,3.2112,3.2125,3.2117,3.2121,3.209,3.2082,3.2091,3.2063,3.2065,3.211,3.2156,3.2058,3.206,3.2229,3.2234,3.2239,3.2337,0,0,0,0,0,0,3.2136,3.2141,3.217,3.2148,3.2149,3.2206,3.2127,3.2119,3.2125,3.2116,3.2099,3.2093,3.2061,3.2107,3.2112,3.2157,3.2062,3.2224,3.2231,3.2237,3.2329,3.2345,3.2358,0,0,0,0,0,3.2135,3.2198,3.2172,3.2176,3.2184,3.2208,3.2209,3.217,3.2129,3.2158,3.2138,3.2094,3.215,3.2112,3.2117,3.2164,3.2221,3.2229,3.2236,3.2323,3.2342,3.2357,0,0,0,0,0,0,3.2225,3.2194,3.2164,3.2222,3.2219,3.2193,3.2228,3.2191,3.22,3.2191,3.2143,3.214,3.2192,3.2182,3.2141,3.2238,3.2178,3.2187,3.2242,3.226,3.2274,3.2275,3.2063,0,0,0,0,0,3.2252,3.2274,3.2246,3.2299,3.2299,3.2264,3.2274,3.2244,3.2239,3.2237,3.222,3.2218,3.2235,3.2247,3.226,3.2328,3.2323,3.2363,3.2377,3.2389,3.2397,3.2433,3.245,3.2266,3.2265,3.2265,0,0,3.2307,3.2293,3.2309,3.2317,3.2311,3.2336,3.2264,3.2292,3.2311,3.2241,3.2283,3.2271,3.2265,3.2322,3.2346,3.2315,3.2447,3.2398,3.2408,3.241,3.2443,3.246,3.2476,3.2271,3.227,3.2269,0,0,3.242,3.2411,3.2455,3.2451,3.2443,3.242,3.2431,3.2412,3.2402,3.2443,3.2392,3.2413,3.2443,3.2441,3.2444,3.256,3.252,3.2566,3.264,3.2676,3.269,3.2703,3.2745,3.276,3.2574,3.2574,3.2575,0,3.2489,3.2524,3.2482,3.2515,3.2521,3.246,3.2505,3.2503,3.2501,3.2506,3.2472,3.251,3.2501,3.2557,3.2586,3.259,3.2601,3.2567,3.2692,3.2704,3.2715,3.2754,3.277,3.258,3.2579,3.2579,3.2578,0,3.261,3.2635,3.2672,3.2672,3.2681,3.272,3.2685,3.27,3.2671,3.2652,3.2696,3.2684,3.2695,3.2706,3.2678,3.2759,3.274,3.27,3.2639,3.2739,3.2775,3.279,3.2588,3.2586,3.2584,3.2583,0,0,3.2776,3.2754,3.2769,3.2768,3.2757,3.2776,3.2813,3.2824,3.2839,3.284,3.287,3.2898,3.2861,3.2865,3.2836,3.2868,3.2961,3.2823,3.2822,3.2849,3.3051,3.3082,3.31,3.2935,3.2938,3.294,3.3052,0,3.2884,3.2946,3.2911,3.2978,3.3001,3.2946,3.2978,3.2975,3.2959,3.2978,3.296,3.2981,3.293,3.2932,3.2961,3.2943,3.3001,3.2935,3.2963,3.2964,3.2966,3.3118,3.315,3.3256,3.3065,3.3068,3.307,0,3.3018,3.3026,3.3095,3.3081,3.309,3.3119,3.3128,3.3146,3.3142,3.3129,3.3134,3.3098,3.3135,3.3075,3.3125,3.3082,3.3091,3.3085,3.3088,3.3088,3.3023,3.3123,3.3289,3.3305,3.3091,3.309,3.3088,0,3.3133,3.3161,3.3207,3.3208,3.3193,3.3215,3.321,3.3203,3.3213,3.322,3.3226,3.3239,3.3245,3.3256,3.3225,3.3184,3.328,3.3217,3.327,3.3271,3.3291,3.329,3.3461,3.3298,3.3298,3.3298,3.3298,0,3.3257,3.3302,3.3258,3.3286,3.3336,3.3296,3.3346,3.3334,3.3329,3.3355,3.3308,3.3333,3.329,3.3311,3.3287,3.3333,3.3337,3.3327,3.332,3.3331,3.3332,3.3336,3.3328,3.3302,3.3301,3.33,3.33,0,3.3393,3.3366,3.3412,3.3394,3.3391,3.3428,3.3413,3.3439,3.3421,3.3454,3.3459,3.3431,3.3453,3.3424,3.3443,3.3427,3.349,3.3472,3.3491,3.3486,3.354,3.3535,3.3719,3.3741,3.3565,3.3567,3.3568,0,3.3474,3.3507,3.3494,3.3508,3.3505,3.3528,3.3538,3.3502,3.3514,3.3514,3.354,3.3559,3.3572,3.3611,3.3592,3.3608,3.359,3.3653,3.3591,3.3602,3.3591,3.3589,3.3593,3.3665,3.3667,3.3669,3.367,0,3.362,3.3606,3.3622,3.3635,3.3648,3.3656,3.3661,3.3675,3.3636,3.3653,3.3676,3.3687,3.3708,3.3727,3.3738,3.3733,3.3696,3.369,3.3703,3.3714,3.3724,3.372,3.3525,3.3686,3.3684,3.3683,3.3682,3.3682,3.3731,3.3759,3.3754,3.3775,3.3774,3.378,3.3804,3.379,3.3808,3.3822,3.38,3.3829,3.3827,3.3837,3.3837,3.386,3.3832,3.3851,3.3855,3.3861,3.3869,3.3722,3.3861,3.3861,3.386,3.386,3.386,0,3.3875,3.387,3.3889,3.3898,3.3914,3.3879,3.3883,3.3899,3.3925,3.3926,3.3941,3.3968,3.3988,3.3972,3.3988,3.4009,3.3993,3.4015,3.4013,3.4012,3.3892,3.388,3.4028,3.4028,3.4028,3.4028,3.4028,3.4028,3.3952,3.3997,3.3983,3.4028,3.4023,3.4051,3.4057,3.4063,3.4063,3.4096,3.4112,3.4102,3.4096,3.4112,3.4129,3.4124,3.4132,3.416,3.4149,3.4037,3.4021,3.4005,3.3993,3.4162,3.4163,3.4267,3.4268,3.4269]},{"header":{"parameterUnit":"m.s-1","parameterCategory":1,"la1":30.2991,"la2":30.254,"lo1":-89.0895,"lo2":-89.0444,"dy":0.0017,"dx":0.0017,"nx":28,"ny":28,"refTime":"2025-03-21T03:00:00:Z","depth":0,"parameterNumber":3,"parameterNumberName":"V-component_of_WINDS"},"data":[0,0,0,0,0,0,0,0,0,0,0,0,0,0,0,0,0,0,0,0,0,0,0,0,0,0,0,0,0,0,0,0,0,0,0,0,0,0,0,0,0,0,0,0,0,0,0,0,0,0,0,0,0,0,0,0,0,0,-6.8707,-6.8709,0,-6.8898,-6.89,-6.8902,-6.8856,-6.8852,-6.8848,-6.8845,-6.9037,-6.9045,-6.9054,0,0,0,0,0,0,0,0,0,0,0,0,0,-6.8301,-6.8309,-6.8707,-6.8709,-6.8712,-6.8897,-6.89,-6.8902,-6.8856,-6.8852,-6.8847,-6.8843,-6.9034,-6.9044,-6.9054,0,0,0,0,0,0,0,0,0,0,0,0,0,-6.8483,-6.8312,-6.8707,-6.8711,-6.8713,-6.8897,-6.89,-6.8903,-6.8857,-6.8852,-6.8846,-6.8841,-6.9031,-6.9043,-6.9056,-6.9245,0,0,-6.9095,-6.91,0,0,0,0,0,0,0,0,-6.8473,-6.8498,-6.8708,-6.8711,-6.8714,-6.8847,-6.8827,-6.9018,-6.8859,-6.8803,-6.8845,-6.8838,-6.8978,-6.8995,-6.9043,-6.9254,-6.9263,-6.9096,-6.9104,-6.9109,-6.9113,0,0,0,0,0,0,0,-6.846,-6.849,-6.8782,-6.8711,-6.8715,-6.8703,-6.8723,-6.8863,-6.8919,-6.8807,-6.8804,-6.8827,-6.8978,-6.903,-6.9047,-6.9265,-6.9096,-6.9107,-6.9115,-6.912,-6.9643,-6.9649,0,0,0,0,0,0,-6.8446,-6.8479,-6.8776,-6.8788,-6.8578,-6.8715,-6.8737,-6.881,-6.8917,-6.8928,-6.8832,-6.8825,-6.9011,-6.9032,-6.9053,-6.9283,-6.9109,-6.9121,-6.9129,-6.9637,-6.9645,-6.9652,0,0,0,0,0,0,-6.8437,-6.8473,-6.8769,-6.8633,-6.867,-6.8728,-6.881,-6.8817,-6.8868,-6.8936,-6.8945,-6.8875,-6.9008,-6.9035,-6.9198,-6.9289,-6.9127,-6.9139,-6.963,-6.964,-6.9648,-6.9744,0,0,0,0,0,0,-6.8426,-6.847,-6.8543,-6.8635,-6.8677,-6.8911,-6.8816,-6.8824,-6.8891,-6.8883,-6.8979,-6.8989,-6.9005,-6.918,-6.9211,-6.9304,-6.9149,-6.9622,-6.9634,-6.9645,-6.9733,-6.9755,-6.9775,0,0,0,0,0,-6.8411,-6.8561,-6.8547,-6.8583,-6.877,-6.8917,-6.8941,-6.8957,-6.8898,-6.8972,-6.9016,-6.8986,-6.9274,-6.9197,-6.9232,-6.933,-6.9616,-6.9631,-6.9644,-6.9723,-6.9751,-6.9774,0,0,0,0,0,0,-6.8477,-6.8573,-6.8558,-6.8743,-6.8822,-6.8909,-6.9002,-6.8985,-6.9082,-6.9071,-6.9086,-6.9108,-6.9275,-6.9318,-6.923,-6.9519,-6.9437,-6.9458,-6.9485,-6.9511,-6.9532,-6.9518,-6.9159,0,0,0,0,0,-6.8513,-6.8625,-6.8703,-6.8858,-6.8899,-6.8944,-6.9008,-6.9014,-6.9097,-6.9129,-6.9185,-6.9265,-6.9374,-6.9445,-6.9549,-6.9739,-6.9759,-6.9824,-6.9844,-6.9861,-6.988,-6.9985,-7.0014,-6.9697,-6.9697,-6.9697,0,0,-6.8588,-6.8654,-6.8724,-6.8873,-6.8935,-6.905,-6.8972,-6.9097,-6.9182,-6.9148,-6.9306,-6.935,-6.944,-6.9618,-6.97,-6.966,-6.9972,-6.9879,-6.9892,-6.9902,-7.0002,-7.0032,-7.0059,-6.9707,-6.9705,-6.9704,0,0,-6.8784,-6.8845,-6.8982,-6.9046,-6.9142,-6.9171,-6.9204,-6.9294,-6.9323,-6.9482,-6.9459,-6.956,-6.9747,-6.9813,-6.9871,-7.0094,-7.007,-7.0127,-7.0235,-7.0337,-7.0362,-7.0385,-7.0465,-7.0493,-7.0145,-7.0145,-7.0145,0,-6.8865,-6.9038,-6.9054,-6.9182,-6.9248,-6.9224,-6.9362,-6.9423,-6.9548,-6.9594,-6.9548,-6.9783,-6.9842,-7.0036,-7.009,-7.0138,-7.0176,-7.0116,-7.0358,-7.038,-7.0401,-7.0478,-7.0508,-7.0152,-7.0151,-7.015,-7.015,0,-6.9133,-6.9254,-6.9353,-6.9475,-6.9552,-6.9685,-6.972,-6.9797,-6.9796,-6.983,-6.9993,-7.0064,-7.0182,-7.0228,-7.0228,-7.0422,-7.0395,-7.0354,-7.0271,-7.0437,-7.0509,-7.0539,-7.0161,-7.0158,-7.0156,-7.0155,0,0,-6.9374,-6.9505,-6.9541,-6.9597,-6.9702,-6.9795,-6.9926,-7.0043,-7.0109,-7.0195,-7.0306,-7.0465,-7.0428,-7.0494,-7.0502,-7.0591,-7.0764,-7.0539,-7.0541,-7.0579,-7.0983,-7.1014,-7.1047,-7.0749,-7.0755,-7.076,-7.0976,0,-6.958,-6.9813,-6.9831,-7.0041,-7.0153,-7.0132,-7.0247,-7.0323,-7.0359,-7.0458,-7.0497,-7.0611,-7.0553,-7.0592,-7.068,-7.0725,-7.0846,-7.0709,-7.0852,-7.0857,-7.083,-7.1085,-7.1118,-7.1318,-7.1004,-7.1009,-7.1012,0,-6.985,-6.9947,-7.0168,-7.0258,-7.0306,-7.0409,-7.0518,-7.0614,-7.07,-7.072,-7.0795,-7.079,-7.0925,-7.0838,-7.1024,-7.0931,-7.099,-7.1021,-7.1029,-7.1043,-7.0945,-7.1106,-7.1382,-7.1412,-7.1057,-7.1053,-7.105,0,-7.0005,-7.019,-7.0347,-7.0395,-7.0504,-7.0577,-7.0625,-7.0706,-7.0776,-7.0871,-7.0916,-7.1026,-7.1085,-7.117,-7.1195,-7.1129,-7.1381,-7.1296,-7.1401,-7.1401,-7.1455,-7.1451,-7.1745,-7.1493,-7.1493,-7.1492,-7.1491,0,-7.0232,-7.0368,-7.0418,-7.0514,-7.0666,-7.0686,-7.0836,-7.088,-7.0953,-7.1057,-7.1046,-7.1143,-7.1171,-7.1274,-7.1294,-7.1446,-7.1473,-7.1492,-7.1496,-7.1494,-7.1491,-7.1533,-7.1519,-7.15,-7.1498,-7.1497,-7.1495,0,-7.043,-7.0469,-7.0638,-7.0728,-7.0754,-7.0862,-7.0939,-7.1031,-7.1066,-7.1198,-7.123,-7.1284,-7.1405,-7.1439,-7.1583,-7.1597,-7.1775,-7.1766,-7.1746,-7.1746,-7.185,-7.184,-7.2181,-7.2227,-7.1945,-7.1947,-7.195,0,-7.0573,-7.0677,-7.0779,-7.0849,-7.0901,-7.1013,-7.1084,-7.1109,-7.1183,-7.1291,-7.1371,-7.149,-7.1587,-7.1781,-7.1832,-7.1943,-7.1936,-7.2048,-7.1953,-7.1947,-7.1939,-7.1932,-7.1943,-7.2066,-7.2069,-7.2071,-7.2073,0,-7.0822,-7.0836,-7.094,-7.1052,-7.1138,-7.1226,-7.1311,-7.1368,-7.1405,-7.1489,-7.1614,-7.1689,-7.1837,-7.1956,-7.2068,-7.2117,-7.2102,-7.2103,-7.2134,-7.2132,-7.2117,-7.2127,-7.1796,-7.2095,-7.2093,-7.2091,-7.209,-7.2089,-7.0997,-7.1089,-7.1176,-7.1292,-7.1359,-7.1439,-7.1531,-7.1578,-7.1682,-7.1806,-7.1814,-7.1948,-7.2033,-7.2183,-7.2238,-7.2343,-7.231,-7.2354,-7.2365,-7.2376,-7.2385,-7.21,-7.2364,-7.2363,-7.2363,-7.2362,-7.2362,0,-7.1246,-7.1301,-7.1408,-7.1528,-7.162,-7.1599,-7.1692,-7.177,-7.1889,-7.197,-7.2066,-7.2209,-7.2325,-7.2386,-7.2501,-7.2574,-7.257,-7.2603,-7.2598,-7.261,-7.2408,-7.237,-7.2605,-7.2605,-7.2605,-7.2605,-7.2605,-7.2605,-7.1386,-7.1542,-7.1567,-7.1755,-7.1809,-7.1942,-7.1997,-7.2071,-7.2136,-7.2297,-7.2394,-7.2433,-7.2507,-7.2627,-7.2732,-7.2747,-7.279,-7.2828,-7.2839,-7.2649,-7.2624,-7.26,-7.2565,-7.2837,-7.2838,-7.3033,-7.3035,-7.3036]}]]